EIN5MW EGAC-EIDW

Flight info

Callsign EIN5MW
Flight time 0h 27m
Altitude 17000
Route BELZU DCT NUMPI/N0374F160 P620 NIMAT NIMAT4L
Aircraft A320/M-SDE3FGHIRWY/LB1

Departure

Time 2026-04-15 09:19
Airport George Best Belfast City Airport (EGAC)

Arrival

Time 2026-04-15 09:46
Airport Dublin Airport (EIDW)
Time Latitude Longitude Altitude Speed Heading
2026-04-15 08:54 54.61501 -5.87144 17 ft 0 kts 156°
2026-04-15 09:10 54.61517 -5.87157 19 ft 4 kts 141°
2026-04-15 09:11 54.61531 -5.87190 20 ft 4 kts 92°
2026-04-15 09:11 54.61524 -5.87230 18 ft 4 kts 45°
2026-04-15 09:11 54.61517 -5.87241 19 ft 0 kts 34°
2026-04-15 09:14 54.61530 -5.87225 18 ft 10 kts 34°
2026-04-15 09:15 54.61616 -5.87123 17 ft 13 kts 34°
2026-04-15 09:15 54.61682 -5.87043 17 ft 11 kts 34°
2026-04-15 09:15 54.61745 -5.86994 19 ft 7 kts 359°
2026-04-15 09:15 54.61780 -5.87045 21 ft 11 kts 307°
2026-04-15 09:16 54.61845 -5.87169 22 ft 14 kts 342°
2026-04-15 09:16 54.61932 -5.87105 21 ft 16 kts 34°
2026-04-15 09:16 54.62030 -5.86988 20 ft 18 kts 34°
2026-04-15 09:16 54.62136 -5.86863 20 ft 19 kts 34°
2026-04-15 09:17 54.62242 -5.86736 24 ft 19 kts 34°
2026-04-15 09:17 54.62354 -5.86603 25 ft 17 kts 34°
2026-04-15 09:17 54.62451 -5.86539 26 ft 12 kts
2026-04-15 09:17 54.62471 -5.86482 23 ft 3 kts 158°
2026-04-15 09:18 54.62437 -5.86505 26 ft 7 kts 213°
2026-04-15 09:18 54.62436 -5.86507 26 ft 0 kts 213°
2026-04-15 09:18 54.62317 -5.86646 24 ft 61 kts 214°
2026-04-15 09:19 54.61734 -5.87328 30 ft 138 kts 212°
2026-04-15 09:19 54.60882 -5.88344 629 ft 144 kts 214°
2026-04-15 09:19 54.60069 -5.89326 1484 ft 142 kts 208°
2026-04-15 09:19 54.59175 -5.90039 1886 ft 149 kts 185°
2026-04-15 09:20 54.58110 -5.89704 2184 ft 169 kts 162°
2026-04-15 09:20 54.56939 -5.88861 2434 ft 195 kts 162°
2026-04-15 09:20 54.55605 -5.87917 2838 ft 219 kts 162°
2026-04-15 09:20 54.54413 -5.87078 3325 ft 232 kts 162°
2026-04-15 09:21 54.53574 -5.86486 3798 ft 236 kts 162°
2026-04-15 09:21 54.52043 -5.85403 4697 ft 240 kts 162°
2026-04-15 09:21 54.50482 -5.84302 5560 ft 246 kts 162°
2026-04-15 09:21 54.48892 -5.83185 5905 ft 247 kts 162°
2026-04-15 09:22 54.47288 -5.82061 6575 ft 250 kts 162°
2026-04-15 09:22 54.46220 -5.81314 7189 ft 250 kts 162°
2026-04-15 09:22 54.44603 -5.80184 8068 ft 252 kts 162°
2026-04-15 09:22 54.42975 -5.79049 8948 ft 254 kts 162°
2026-04-15 09:23 54.41322 -5.77899 9797 ft 257 kts 162°
2026-04-15 09:23 54.39078 -5.76344 10532 ft 275 kts 162°
2026-04-15 09:23 54.37226 -5.75071 10788 ft 299 kts 162°
2026-04-15 09:23 54.35226 -5.73694 11057 ft 318 kts 162°
2026-04-15 09:24 54.33835 -5.72732 11445 ft 323 kts 162°
2026-04-15 09:24 54.31734 -5.71273 12175 ft 327 kts 162°
2026-04-15 09:24 54.29617 -5.69799 12922 ft 330 kts 162°
2026-04-15 09:24 54.27479 -5.68316 13657 ft 333 kts 162°
2026-04-15 09:25 54.25320 -5.66826 14313 ft 336 kts 162°
2026-04-15 09:25 54.23142 -5.65323 14984 ft 339 kts 162°
2026-04-15 09:25 54.20981 -5.63832 15627 ft 341 kts 161°
2026-04-15 09:25 54.18722 -5.62424 16261 ft 341 kts 167°
2026-04-15 09:26 54.16418 -5.61645 16668 ft 342 kts 175°
2026-04-15 09:26 54.14032 -5.61530 16750 ft 347 kts 182°
2026-04-15 09:26 54.11663 -5.62063 16761 ft 343 kts 193°
2026-04-15 09:26 54.09422 -5.63471 16767 ft 345 kts 202°
2026-04-15 09:27 54.07253 -5.65217 16765 ft 345 kts 203°
2026-04-15 09:27 54.05092 -5.67017 16764 ft 346 kts 203°
2026-04-15 09:27 54.02941 -5.68829 16766 ft 345 kts 204°
2026-04-15 09:27 54.00784 -5.70644 16761 ft 345 kts 204°
2026-04-15 09:28 53.98631 -5.72440 16759 ft 345 kts 202°
2026-04-15 09:28 53.96384 -5.73830 16761 ft 343 kts 192°
2026-04-15 09:28 53.94032 -5.74407 16759 ft 342 kts 182°
2026-04-15 09:28 53.91663 -5.74558 16756 ft 341 kts 182°
2026-04-15 09:29 53.89282 -5.74714 16766 ft 341 kts 182°
2026-04-15 09:29 53.86912 -5.74876 16764 ft 341 kts 182°
2026-04-15 09:29 53.84545 -5.75044 16750 ft 336 kts 182°
2026-04-15 09:29 53.82248 -5.75213 16646 ft 326 kts 182°
2026-04-15 09:30 53.80014 -5.75377 16516 ft 316 kts 182°
2026-04-15 09:30 53.77859 -5.75532 16383 ft 305 kts 182°
2026-04-15 09:30 53.75766 -5.75678 16254 ft 297 kts 183°
2026-04-15 09:30 53.73736 -5.75819 16124 ft 286 kts 182°
2026-04-15 09:31 53.71787 -5.75953 15827 ft 275 kts 183°
2026-04-15 09:31 53.69894 -5.76085 15192 ft 271 kts 184°
2026-04-15 09:31 53.68014 -5.76216 14625 ft 266 kts 184°
2026-04-15 09:31 53.66236 -5.76339 14493 ft 246 kts 184°
2026-04-15 09:32 53.64573 -5.76360 14192 ft 236 kts 176°
2026-04-15 09:32 53.63002 -5.75579 13726 ft 239 kts 159°
2026-04-15 09:32 53.61656 -5.73850 13174 ft 251 kts 140°
2026-04-15 09:32 53.60586 -5.71490 12582 ft 254 kts 136°
2026-04-15 09:33 53.59539 -5.69101 12045 ft 252 kts 136°
2026-04-15 09:33 53.58502 -5.66740 11508 ft 250 kts 136°
2026-04-15 09:33 53.57450 -5.64434 10956 ft 244 kts 143°
2026-04-15 09:33 53.56180 -5.62684 10419 ft 231 kts 157°
2026-04-15 09:34 53.54806 -5.61286 9859 ft 231 kts 156°
2026-04-15 09:34 53.53437 -5.59890 9273 ft 230 kts 156°
2026-04-15 09:34 53.52075 -5.58501 8709 ft 228 kts 156°
2026-04-15 09:34 53.50742 -5.57140 8183 ft 226 kts 156°
2026-04-15 09:35 53.49403 -5.55827 7807 ft 214 kts 163°
2026-04-15 09:35 53.48013 -5.55107 7740 ft 208 kts 175°
2026-04-15 09:35 53.46588 -5.54708 7217 ft 207 kts 175°
2026-04-15 09:35 53.45175 -5.54321 6636 ft 207 kts 175°
2026-04-15 09:36 53.43742 -5.53928 6083 ft 206 kts 175°
2026-04-15 09:36 53.42333 -5.53541 5503 ft 205 kts 175°
2026-04-15 09:36 53.40933 -5.53157 4993 ft 204 kts 175°
2026-04-15 09:36 53.39546 -5.53154 4476 ft 197 kts 196°
2026-04-15 09:37 53.38366 -5.54204 3978 ft 194 kts 221°
2026-04-15 09:37 53.37658 -5.56134 3443 ft 200 kts 249°
2026-04-15 09:37 53.37690 -5.58484 3169 ft 205 kts 276°
2026-04-15 09:37 53.38126 -5.60742 3048 ft 196 kts 271°
2026-04-15 09:38 53.38307 -5.62951 3051 ft 189 kts 265°
2026-04-15 09:38 53.38404 -5.65135 3051 ft 188 kts 263°
2026-04-15 09:38 53.38499 -5.67320 3051 ft 188 kts 264°
2026-04-15 09:38 53.38608 -5.69495 3049 ft 188 kts 265°
2026-04-15 09:39 53.38730 -5.71680 3047 ft 188 kts 265°
2026-04-15 09:39 53.38864 -5.73858 3045 ft 187 kts 265°
2026-04-15 09:39 53.39005 -5.76030 3040 ft 187 kts 266°
2026-04-15 09:39 53.39151 -5.78196 3027 ft 187 kts 266°
2026-04-15 09:40 53.39300 -5.80363 3026 ft 187 kts 266°
2026-04-15 09:40 53.39451 -5.82526 3028 ft 187 kts 266°
2026-04-15 09:40 53.39602 -5.84696 3024 ft 188 kts 266°
2026-04-15 09:40 53.39793 -5.86879 3023 ft 190 kts 268°
2026-04-15 09:41 53.39961 -5.89079 3019 ft 189 kts 266°
2026-04-15 09:41 53.40100 -5.91262 3016 ft 188 kts 265°
2026-04-15 09:41 53.40230 -5.93433 3011 ft 187 kts 265°
2026-04-15 09:41 53.40356 -5.95598 3011 ft 187 kts 265°
2026-04-15 09:42 53.40481 -5.97767 3013 ft 187 kts 265°
2026-04-15 09:42 53.40606 -5.99930 3006 ft 187 kts 265°
2026-04-15 09:42 53.40731 -6.02066 2904 ft 179 kts 264°
2026-04-15 09:42 53.40848 -6.04053 2674 ft 165 kts 264°
2026-04-15 09:43 53.40953 -6.05880 2463 ft 154 kts 263°
2026-04-15 09:43 53.41052 -6.07624 2258 ft 143 kts 262°
2026-04-15 09:43 53.41143 -6.09249 2072 ft 138 kts 262°
2026-04-15 09:43 53.41231 -6.10820 1889 ft 136 kts 261°
2026-04-15 09:44 53.41319 -6.12398 1711 ft 136 kts 261°
2026-04-15 09:44 53.41407 -6.13978 1528 ft 136 kts 261°
2026-04-15 09:44 53.41495 -6.15555 1343 ft 136 kts 261°
2026-04-15 09:44 53.41584 -6.17133 1154 ft 135 kts 261°
2026-04-15 09:45 53.41671 -6.18703 972 ft 137 kts 261°
2026-04-15 09:45 53.41774 -6.20323 796 ft 141 kts 267°
2026-04-15 09:45 53.41873 -6.21956 578 ft 141 kts 266°
2026-04-15 09:45 53.41954 -6.23619 434 ft 144 kts 269°
2026-04-15 09:46 53.42046 -6.25298 245 ft 141 kts 268°
2026-04-15 09:46 53.42117 -6.26700 211 ft 86 kts 275°
2026-04-15 09:46 53.42146 -6.27288 210 ft 35 kts 276°
2026-04-15 09:46 53.42173 -6.27689 209 ft 35 kts 281°
2026-04-15 09:47 53.42259 -6.28008 211 ft 18 kts 300°
2026-04-15 09:47 53.42313 -6.28115 211 ft 12 kts 338°